When you browse on this site, cookies collect data to enhance your experience and personalize the content and advertising you see.
Visit our Privacy Policy to learn more. By continuing to use the site, you agree to this use of cookies and data.
EN

Hourly Weather Saarbrucken

Today, 16 July, Thursday

Time Temperature Precipitation Wind Pressure Humidity
00:00 +15°C° 0 mm 1 mps 741 mmHg 87%
01:00 +15°C° 0.1 mm 1 mps 741 mmHg 89%
02:00 +15°C° 0.1 mm 2 mps 740 mmHg 90%
03:00 +15°C° 0.1 mm 2 mps 740 mmHg 92%
04:00 +15°C° 0.1 mm 2 mps 740 mmHg 93%
05:00 +15°C° 0.1 mm 2 mps 740 mmHg 93%
06:00 +14°C° 0.1 mm 3 mps 741 mmHg 94%
07:00 +14°C° 0.1 mm 3 mps 741 mmHg 93%
08:00 +14°C° 0.1 mm 3 mps 741 mmHg 92%
09:00 +14°C° 0.1 mm 3 mps 741 mmHg 92%
10:00 +14°C° 0.1 mm 3 mps 742 mmHg 92%
11:00 +14°C° 0.1 mm 3 mps 742 mmHg 92%
12:00 +14°C° 0.1 mm 3 mps 742 mmHg 92%
13:00 +14°C° 0.2 mm 3 mps 742 mmHg 93%
14:00 +14°C° 0.2 mm 3 mps 742 mmHg 94%
15:00 +14°C° 0.2 mm 3 mps 741 mmHg 95%
16:00 +15°C° 0.1 mm 2 mps 742 mmHg 95%
17:00 +15°C° 0.1 mm 2 mps 742 mmHg 95%
18:00 +15°C° 0.1 mm 2 mps 742 mmHg 95%
19:00 +15°C° 0.1 mm 2 mps 742 mmHg 96%
20:00 +15°C° 0.1 mm 2 mps 742 mmHg 96%
21:00 +15°C° 0.1 mm 2 mps 742 mmHg 97%
22:00 +15°C° 0 mm 2 mps 742 mmHg 97%
23:00 +15°C° 0 mm 1 mps 742 mmHg 97%

Tomorrow, 17 July, Friday

Time Temperature Precipitation Wind Pressure Humidity
00:00 +15°C° 0 mm 1 mps 742 mmHg 97%
01:00 +14°C° 0 mm 1 mps 742 mmHg 97%
02:00 +14°C° 0 mm 1 mps 742 mmHg 96%
03:00 +13°C° 0 mm 0 mps 742 mmHg 96%
04:00 +13°C° 0 mm 0 mps 742 mmHg 95%
05:00 +14°C° 0 mm 0 mps 742 mmHg 94%
06:00 +15°C° 0 mm 0 mps 743 mmHg 93%
07:00 +18°C° 0.1 mm 1 mps 743 mmHg 86%
08:00 +20°C° 0.1 mm 1 mps 743 mmHg 79%
09:00 +21°C° 0.1 mm 1 mps 743 mmHg 72%
10:00 +22°C° 0.2 mm 1 mps 743 mmHg 68%
11:00 +23°C° 0.2 mm 1 mps 743 mmHg 63%
12:00 +24°C° 0.2 mm 1 mps 742 mmHg 59%
13:00 +24°C° 0.1 mm 1 mps 742 mmHg 57%
14:00 +24°C° 0.1 mm 1 mps 742 mmHg 56%
15:00 +25°C° 0.1 mm 2 mps 742 mmHg 55%
16:00 +24°C° 0.1 mm 1 mps 742 mmHg 61%
17:00 +23°C° 0.1 mm 1 mps 741 mmHg 66%
18:00 +22°C° 0.1 mm 1 mps 741 mmHg 72%
19:00 +21°C° 0 mm 1 mps 741 mmHg 76%
20:00 +19°C° 0 mm 1 mps 742 mmHg 81%
21:00 +16°C° 0 mm 1 mps 742 mmHg 85%
22:00 +16°C° 0 mm 1 mps 742 mmHg 86%
23:00 +15°C° 0 mm 1 mps 742 mmHg 87%

Day after tomorrow, 18 July, Saturday

Time Temperature Precipitation Wind Pressure Humidity
00:00 +14°C° 0 mm 1 mps 742 mmHg 89%
01:00 +14°C° 0 mm 1 mps 742 mmHg 89%
02:00 +14°C° 0 mm 1 mps 742 mmHg 89%
03:00 +14°C° 0 mm 1 mps 742 mmHg 90%
04:00 +15°C° 0 mm 1 mps 742 mmHg 86%
05:00 +15°C° 0 mm 0 mps 742 mmHg 83%
06:00 +16°C° 0 mm 0 mps 742 mmHg 80%
07:00 +18°C° 0 mm 0 mps 742 mmHg 74%
08:00 +20°C° 0 mm 0 mps 742 mmHg 67%
09:00 +22°C° 0 mm 0 mps 742 mmHg 60%
10:00 +22°C° 0.1 mm 0 mps 741 mmHg 58%
11:00 +23°C° 0.1 mm 0 mps 741 mmHg 56%
12:00 +24°C° 0.1 mm 0 mps 741 mmHg 54%
13:00 +24°C° 0.1 mm 0 mps 741 mmHg 54%
14:00 +24°C° 0.1 mm 0 mps 741 mmHg 54%
15:00 +24°C° 0.1 mm 0 mps 740 mmHg 53%
16:00 +23°C° 0 mm 0 mps 740 mmHg 58%
17:00 +25°C° 0 mm 1 mps 740 mmHg 64%
18:00 +24°C° 0 mm 1 mps 740 mmHg 69%
19:00 +22°C° 0 mm 1 mps 740 mmHg 73%
20:00 +18°C° 0 mm 0 mps 740 mmHg 78%
21:00 +16°C° 0 mm 0 mps 740 mmHg 82%
22:00 +16°C° 0 mm 0 mps 740 mmHg 83%
23:00 +15°C° 0 mm 0 mps 740 mmHg 84%

19 July, Sunday

Time Temperature Precipitation Wind Pressure Humidity
00:00 +15°C° 0 mm 0 mps 740 mmHg 85%
01:00 +15°C° 0 mm 0 mps 740 mmHg 85%
02:00 +14°C° 0 mm 0 mps 739 mmHg 86%
03:00 +14°C° 0 mm 0 mps 739 mmHg 87%
04:00 +15°C° 0 mm 0 mps 739 mmHg 84%
05:00 +16°C° 0 mm 0 mps 739 mmHg 81%
06:00 +17°C° 0 mm 0 mps 739 mmHg 78%
07:00 +19°C° 0 mm 0 mps 739 mmHg 73%
08:00 +23°C° 0 mm 1 mps 740 mmHg 68%
09:00 +25°C° 0 mm 1 mps 740 mmHg 62%
10:00 +25°C° 0.7 mm 1 mps 739 mmHg 62%
11:00 +25°C° 0.7 mm 1 mps 739 mmHg 63%
12:00 +26°C° 0.7 mm 1 mps 739 mmHg 63%
13:00 +26°C° 1 mm 2 mps 739 mmHg 62%
14:00 +26°C° 1 mm 2 mps 739 mmHg 62%
15:00 +26°C° 1 mm 2 mps 738 mmHg 62%
16:00 +26°C° 0.2 mm 2 mps 738 mmHg 65%
17:00 +25°C° 0.2 mm 2 mps 738 mmHg 68%
18:00 +24°C° 0.2 mm 2 mps 738 mmHg 70%
19:00 +21°C° 0 mm 2 mps 739 mmHg 74%
20:00 +19°C° 0 mm 2 mps 739 mmHg 78%
21:00 +17°C° 0 mm 2 mps 739 mmHg 82%
22:00 +18°C° 0 mm 1 mps 739 mmHg 85%
23:00 +16°C° 0 mm 1 mps 739 mmHg 87%

20 July, Monday

Time Temperature Precipitation Wind Pressure Humidity
00:00 +16°C° 0 mm 1 mps 739 mmHg 90%
01:00 +15°C° 0 mm 1 mps 739 mmHg 91%
02:00 +14°C° 0 mm 0 mps 739 mmHg 92%
03:00 +14°C° 0 mm 0 mps 739 mmHg 92%
04:00 +15°C° 0 mm 0 mps 739 mmHg 90%
05:00 +16°C° 0 mm 0 mps 739 mmHg 88%
06:00 +17°C° 0 mm 0 mps 739 mmHg 86%
07:00 +20°C° 0.6 mm 1 mps 740 mmHg 83%
08:00 +20°C° 0.6 mm 2 mps 740 mmHg 80%
09:00 +21°C° 0.6 mm 3 mps 740 mmHg 76%
10:00 +22°C° 0.8 mm 3 mps 740 mmHg 74%
11:00 +22°C° 0.8 mm 3 mps 740 mmHg 72%
12:00 +22°C° 0.8 mm 3 mps 740 mmHg 70%
13:00 +24°C° 0.2 mm 2 mps 740 mmHg 65%
14:00 +24°C° 0.2 mm 2 mps 740 mmHg 61%
15:00 +25°C° 0.2 mm 2 mps 740 mmHg 56%
16:00 +24°C° 0.1 mm 2 mps 740 mmHg 62%
17:00 +23°C° 0.1 mm 2 mps 740 mmHg 67%
18:00 +21°C° 0.1 mm 2 mps 741 mmHg 72%
19:00 +19°C° 0 mm 2 mps 741 mmHg 76%
20:00 +17°C° 0 mm 2 mps 741 mmHg 79%
21:00 +15°C° 0 mm 2 mps 741 mmHg 83%
22:00 +15°C° 0 mm 2 mps 742 mmHg 83%
23:00 +14°C° 0 mm 2 mps 742 mmHg 83%

21 July, Tuesday

Time Temperature Precipitation Wind Pressure Humidity
00:00 +13°C° 0 mm 2 mps 742 mmHg 83%
01:00 +13°C° 0 mm 2 mps 742 mmHg 81%
02:00 +14°C° 0 mm 2 mps 742 mmHg 79%
03:00 +14°C° 0 mm 2 mps 742 mmHg 77%
04:00 +14°C° 0 mm 2 mps 742 mmHg 77%
05:00 +15°C° 0 mm 2 mps 742 mmHg 76%
06:00 +15°C° 0 mm 2 mps 742 mmHg 75%
07:00 +17°C° 0 mm 2 mps 742 mmHg 70%
08:00 +19°C° 0 mm 2 mps 743 mmHg 64%
09:00 +20°C° 0 mm 2 mps 743 mmHg 59%
10:00 +21°C° 0 mm 2 mps 743 mmHg 55%
11:00 +23°C° 0 mm 2 mps 743 mmHg 51%
12:00 +23°C° 0 mm 2 mps 743 mmHg 47%
13:00 +24°C° 0 mm 2 mps 743 mmHg 45%
14:00 +24°C° 0 mm 2 mps 742 mmHg 43%
15:00 +24°C° 0 mm 2 mps 742 mmHg 41%
16:00 +23°C° 0 mm 2 mps 742 mmHg 46%
17:00 +21°C° 0 mm 2 mps 742 mmHg 52%
18:00 +20°C° 0 mm 2 mps 742 mmHg 58%
19:00 +18°C° 0 mm 2 mps 743 mmHg 62%
20:00 +16°C° 0 mm 2 mps 743 mmHg 67%
21:00 +14°C° 0 mm 2 mps 743 mmHg 71%
22:00 +13°C° 0 mm 2 mps 743 mmHg 73%
23:00 +13°C° 0 mm 2 mps 743 mmHg 74%
Show more